STARLINK-35854, 68214

Orbit data source: Space-Track

STARLINK-35854, 68214 is a payload satellite owned by SpaceX/Seattle (US) in SSO that was launched on Tue, 17 Mar 2026 UTC via an FALCON 9 launch vehicle from the Air Force Western Test Range (AFWTR). Payload-class satellites include a variety of spacecraft equipped with specific instruments for various scientific and technological missions. These include communications satellites like Starlink; space stations such as the ISS; scientific satellites like the Hubble; Earth observation satellites from companies like Planet Labs, Umbra, and HawkEye 360; GPS; miniature CubeSats for education and research; and military/defense satellites.

Loading next visibility...
Identifier
68214, 2026-053H
Orbit
SSO
Country
Flag of USUS
Related business
Manufacturer
SpaceX/Seattle
Mission
Operational spacecraft
Bus & Motor
STARLINK V2MO, Unknown motor
Mass
575 kg wet, ~530 kg dry
Launch date (UTC)
2026-03-17 (3 months ago)
Launch vehicle
FALCON 9
Launch site
Air Force Western Test Range (AFWTR)
Object type
Payload
Rocket body
Debris
Shape & HBR
Unknown shape, 17.7 m
Radar Cross Section
Large (>1 m²)

Expand to show TLE details & history
Last TLE update: 15 hours ago

TLE from 15 hours ago
0 STARLINK-35854
1 68214U 26053H   26171.21845943  .00030140  00000-0  93204-3 0  9999
2 68214  97.2859  46.3318 0002079 104.9907 255.1566 15.33449584 15918
Epoch: 2026-06-20T05:14Z
TLE epoch observation values (Epoch: 2026-06-20T05:14:34.894Z)
Latitude
-0.00004°
Longitude
59.25018°
Altitude
469.006 km
Speed
7.631 km/s
True Right ascension
03h 05m 19s
True Declination
0° 00' 00"
Sunlit
Object was in daylight at epoch
Visualization orbit readout
Latitude
Unknown
Longitude
Unknown
Altitude
Unknown
Speed
Unknown
Apparent Right ascension
Unknown
Apparent Declination
Unknown
Sunlit
N/A
Visualization observer readout
Local Sidereal Time
07:24:07
Azimuth
Unknown
Elevation
Unknown
Doppler factor
Unknown
Orbital elements
Apogee altitude
463.894 km
Perigee altitude
461.05 km
Semi-major axis
6,840.609 km
Eccentricity
0.00021
Inclination
97.2859°
RAAN
46.3318°
Arg. of periapsis
104.9907°
True anomaly
255.13357°
Mean anomaly
255.1566°
Eccentric anomaly
255.14509°
Mean motion
3.8362 °/min
Orbital period
93.84 mins
BSTAR
0.00093204
Loading maneuver chart data...
Computing Atmospheric mass density...
Loading historical data...
Loading historical data...
Loading historical data...
Loading historical data...
Loading historical data...
Loading historical data...
Loading historical data...

Documentation

Showing up to 5 results
|